Wind_Speed
13 16 20 22 22 16 13 12 1 20 22 29 32 35 34 38 38 35 31 33 35 35 32 29 31 31 32 32 32 33 34 35 34 34 35 37 40 43 44 43 41 41 42 42 41 40 38 38 39
15 18 19 21 21 19 17 10 9 19 31 36 37 38 38 43 38 36 36 36 33 33 28 27 32 35 32 32 33 35 36 36 36 36 37 39 40 43 45 46 45 44 43 42 42 42 42 42 41
16 22 23 29 20 16 11 18 22 23 29 34 39 43 47 46 38 35 36 36 33 35 32 29 30 32 34 32 34 36 36 36 36 37 40 42 44 44 42 42 43 41 39 40 41 42 45 46 44
21 29 38 25 18 9 13 17 22 21 31 35 40 46 43 41 36 31 33 35 35 35 34 32 32 31 30 32 34 35 36 37 37 39 42 44 46 44 42 40 38 38 37 38 41 43 44 47 47
30 35 34 17 11 11 14 22 24 23 26 34 39 42 44 40 36 34 36 35 37 37 38 38 37 37 34 33 32 34 35 36 37 40 43 45 43 41 41 39 39 40 42 41 42 45 45 47 47
28 29 29 16 13 13 18 26 28 26 29 29 35 39 38 39 35 35 35 32 37 39 41 38 36 35 34 32 34 36 35 34 37 41 42 40 39 41 43 44 44 45 44 43 40 45 44 45 47
27 28 27 19 14 13 11 28 31 27 28 30 32 38 38 40 35 33 35 37 39 34 36 32 32 33 32 31 34 36 36 37 40 39 38 37 39 41 43 44 45 45 44 39 38 40 42 42 46
24 32 28 20 21 17 14 19 23 22 26 36 41 39 39 39 31 37 41 39 32 27 27 26 27 26 28 30 31 31 32 36 39 37 37 37 39 42 43 40 40 40 36 36 36 36 38 38 43
32 38 31 25 26 24 18 18 28 27 34 39 42 40 37 36 34 40 40 31 24 22 23 25 22 24 27 28 31 33 34 36 36 37 36 37 36 38 39 39 36 34 32 34 36 34 35 35 40
37 41 27 29 27 28 22 22 24 28 29 35 37 41 39 32 33 37 33 31 29 26 23 26 25 27 30 32 33 33 35 34 35 34 35 37 36 40 39 33 30 31 26 27 30 30 31 33 36
40 41 35 37 35 24 21 17 21 26 31 30 33 35 36 33 34 28 26 23 24 27 27 29 28 27 30 33 32 34 35 34 35 35 35 35 36 36 36 33 31 25 23 26 28 28 29 32 34
51 51 46 28 28 23 25 23 18 28 26 28 35 31 31 32 20 22 25 27 29 31 31 30 29 30 31 32 33 34 32 34 30 33 31 29 31 37 35 29 23 22 25 28 31 31 31 34 32
55 56 43 34 31 29 29 22 23 28 20 29 34 32 27 26 24 21 23 25 28 27 29 31 30 31 31 32 34 33 33 31 27 25 27 30 32 35 27 17 16 20 24 25 24 29 31 34 32
49 32 26 30 33 32 25 25 26 21 17 28 32 30 29 29 26 25 23 28 28 28 31 32 32 31 30 32 33 32 34 26 27 30 29 27 33 29 23 14 18 21 21 21 21 24 29 34 30
28 27 28 34 35 20 23 26 20 19 20 28 35 28 27 24 30 29 23 29 32 32 31 34 31 29 28 32 30 30 26 26 29 29 31 27 30 25 19 15 17 16 15 17 17 22 27 33 32
29 25 25 23 18 7 17 20 17 25 25 25 31 27 32 36 37 28 21 26 30 31 30 32 31 27 29 31 29 31 29 29 30 27 27 27 29 23 18 17 15 11 11 14 13 22 26 31 32
24 20 20 9 7 7 10 20 19 26 35 25 27 33 30 34 40 33 26 30 31 32 30 29 28 26 29 30 28 30 30 29 27 26 26 26 27 20 17 16 11 6 8 12 14 23 29 24 29
18 21 18 8 5 10 14 29 24 28 30 31 31 37 37 34 40 30 27 28 30 30 30 29 25 25 28 29 27 28 30 25 22 22 26 24 22 18 15 13 8 3 4 8 16 24 29 27 30
22 24 20 15 6 17 22 17 15 17 26 26 28 22 23 32 35 36 25 26 29 28 29 27 23 25 27 27 25 26 25 23 22 21 24 23 19 15 11 9 6 2 3 4 21 28 29 28 30
24 25 22 16 12 17 22 21 22 24 28 29 27 24 26 22 29 29 21 21 24 26 27 22 21 24 25 25 24 25 25 20 22 19 22 23 18 12 9 6 4 2 6 10 22 30 28 26 32
26 26 17 22 17 25 25 32 34 31 29 26 22 25 28 27 31 23 21 21 22 25 26 20 20 22 22 23 22 22 19 21 23 20 19 21 13 10 7 3 1 4 10 15 25 27 27 29 32
29 20 20 22 18 25 26 31 26 20 20 15 12 27 30 34 33 21 20 20 22 24 21 18 19 19 21 22 20 20 21 23 22 16 15 20 17 12 4 3 3 5 11 14 23 27 27 29 31
24 22 20 13 10 17 27 30 13 16 13 13 18 26 32 37 23 19 18 19 22 21 16 15 18 17 18 19 16 19 22 22 16 14 17 18 17 11 4 5 5 7 11 16 20 27 26 24 32
22 22 18 11 17 32 26 26 7 7 9 18 26 30 35 38 17 18 17 20 22 16 16 14 16 16 17 15 15 18 20 15 13 15 18 18 14 9 6 6 8 10 14 18 20 24 18 25 31
23 15 23 26 31 22 15 19 6 8 7 17 25 27 26 16 16 17 17 19 18 16 14 15 15 15 16 11 13 15 15 15 16 19 19 12 14 9 8 9 11 13 16 19 18 21 18 23 28
26 27 30 30 28 9 7 10 15 11 11 20 24 23 27 17 17 18 17 18 16 17 11 13 16 16 13 7 11 14 15 14 19 20 15 16 14 11 9 10 12 12 14 20 20 17 18 18 26
30 32 20 28 24 16 12 9 16 13 15 22 29 27 26 28 21 17 17 14 14 10 10 14 14 11 9 6 10 14 15 15 20 19 15 13 13 12 13 11 13 12 14 16 17 18 19 18 19
33 26 33 34 32 27 21 19 17 22 20 27 30 27 31 20 21 16 14 11 13 7 10 14 12 10 8 5 11 13 13 14 19 19 14 15 15 13 12 13 17 14 14 15 15 18 18 19 20
34 38 39 32 25 21 18 16 16 17 23 26 27 27 29 21 20 15 13 10 6 6 11 13 12 10 9 7 9 10 11 14 22 19 16 18 18 14 15 17 19 17 16 15 15 20 19 20 21
32 39 40 35 28 23 16 9 14 16 21 24 22 21 25 13 12 11 7 10 5 6 12 13 13 9 10 12 11 11 11 12 19 21 18 18 19 20 15 18 19 19 19 19 18 19 19 20 22
Wind_Direction
318 319 324 330 340 318 278 263 193 288 265 259 256 259 271 283 286 291 298 297 303 307 309 310 307 305 303 300 298 298 300 302 302 302 301 302 303 300 297 296 296 294 290 286 280 275 268 261 256
314 319 327 336 331 320 295 291 283 246 270 274 277 284 279 290 294 299 300 296 300 301 309 308 305 302 301 301 301 303 304 303 301 301 302 304 302 299 298 297 293 288 285 281 277 270 263 257 251
299 308 314 321 328 283 275 313 294 262 279 292 294 290 290 297 301 301 304 302 304 302 309 310 307 304 304 303 302 303 304 303 301 302 304 304 302 300 296 295 292 288 283 280 276 270 261 255 247
292 309 316 319 318 290 287 272 313 291 298 300 298 302 294 298 309 306 302 304 304 302 301 303 306 303 299 299 298 302 304 303 304 302 303 302 299 295 295 294 287 285 284 281 275 269 263 255 248
306 306 312 313 295 301 300 312 294 295 297 305 301 299 308 305 302 308 306 305 303 306 304 306 309 307 305 302 303 304 304 304 302 301 301 300 296 294 294 290 284 283 285 281 275 266 260 253 247
304 304 307 298 304 335 301 290 296 296 293 291 299 305 301 305 312 306 307 310 309 309 307 297 305 306 305 306 308 306 305 304 303 301 302 299 296 292 293 291 287 284 283 280 273 264 258 250 242
295 290 297 298 313 328 248 288 282 292 301 292 309 301 304 311 314 309 310 308 311 314 312 310 309 309 306 303 304 303 304 306 304 307 303 299 295 295 293 292 287 281 279 275 267 261 254 245 238
287 286 305 297 307 309 271 289 300 299 286 307 305 300 302 307 316 316 320 317 316 314 315 305 296 294 299 299 301 300 303 310 307 304 300 299 299 298 296 291 285 280 272 270 259 255 250 243 234
285 286 291 282 298 301 249 259 279 285 298 301 294 298 306 334 320 323 322 307 304 301 311 297 296 296 295 301 310 308 314 312 310 307 303 303 302 304 298 290 284 280 274 263 252 247 245 241 229
285 281 282 287 297 294 271 269 283 287 286 286 287 305 313 337 316 322 319 305 304 311 308 310 312 309 316 313 312 311 315 313 311 308 303 304 296 301 299 290 286 280 270 258 252 239 241 238 227
287 277 283 297 285 293 291 291 287 286 287 284 293 297 309 324 326 316 321 326 323 322 320 319 317 316 316 317 317 319 319 317 315 312 307 308 301 302 301 292 282 271 263 259 251 238 236 231 224
285 284 282 287 289 296 289 298 287 281 284 289 285 308 318 317 323 320 309 319 325 324 324 322 320 317 319 319 322 322 317 318 314 316 311 308 312 310 305 295 271 266 266 262 254 243 231 223 218
279 286 282 280 289 286 281 292 278 273 303 289 287 307 314 320 307 310 314 318 316 316 320 320 315 321 324 325 326 322 320 318 318 325 329 313 314 313 310 294 274 278 265 258 246 232 223 212 209
283 271 269 275 281 274 283 275 275 296 301 296 306 306 308 316 314 314 312 316 313 313 315 324 322 327 327 328 326 324 323 317 315 319 324 318 323 318 325 300 281 282 264 249 233 227 211 203 202
267 262 267 267 270 280 277 277 292 296 312 308 307 308 301 306 314 322 315 311 308 311 322 325 325 329 326 328 327 325 327 323 318 317 323 324 330 325 329 309 298 293 267 236 228 213 197 197 197
255 261 260 268 269 297 269 310 314 310 306 309 307 316 318 304 315 330 319 302 306 316 323 325 325 327 329 331 327 324 320 319 317 320 333 331 328 325 327 315 308 297 255 213 213 200 189 192 195
250 266 275 274 259 238 261 306 302 291 289 310 314 306 305 305 295 318 317 312 313 318 322 325 326 326 328 332 327 329 326 322 316 316 329 335 331 323 324 324 318 300 231 205 198 189 179 187 191
273 273 263 215 223 338 281 268 287 285 298 302 321 315 302 299 295 324 324 311 313 316 326 322 328 325 328 330 326 330 328 334 328 326 334 334 334 326 329 327 324 280 206 199 196 185 183 184 185
249 249 244 220 203 292 292 301 279 289 291 301 309 296 299 297 308 311 319 309 310 319 322 321 326 325 328 331 328 329 327 330 326 339 342 345 340 328 332 329 337 220 187 180 175 173 182 181 179
233 236 242 264 199 252 291 292 288 292 290 293 283 324 321 326 320 316 306 305 311 317 316 327 324 325 331 333 328 331 329 325 331 335 339 347 339 324 328 337 332 152 163 148 163 172 178 176 176
240 240 240 266 231 210 237 249 255 262 269 277 302 304 308 320 322 304 315 311 314 314 315 327 323 326 332 332 330 333 331 337 335 338 343 350 341 338 323 17 40 149 150 151 162 170 176 174 181
238 238 247 257 230 231 237 259 264 276 294 275 282 290 293 304 322 304 319 314 316 312 316 323 324 328 331 330 333 329 337 335 341 339 350 357 356 353 340 81 107 148 143 155 167 171 173 172 178
243 236 245 219 244 264 269 275 303 271 259 280 292 286 297 314 312 314 316 320 320 319 322 323 330 331 331 330 335 330 339 338 351 352 349 355 359 6 19 113 127 138 145 150 163 171 167 169 181
231 231 211 219 256 258 265 282 322 226 267 304 312 312 309 308 315 322 319 323 321 324 324 331 334 334 330 334 337 340 355 17 2 353 349 354 11 31 35 112 127 127 144 150 159 173 168 168 175
194 218 206 214 230 251 281 268 312 237 266 301 309 313 316 316 318 319 318 320 321 329 328 334 339 337 329 334 341 350 356 2 355 355 358 15 30 49 59 113 132 126 133 140 150 177 177 164 187
210 212 227 220 236 266 209 287 319 263 270 295 298 320 337 312 308 311 314 320 316 330 336 345 346 335 328 343 349 355 359 353 3 6 25 30 40 50 81 122 133 134 133 134 144 153 157 166 159
197 215 229 233 241 236 220 253 282 276 289 288 294 322 333 333 324 315 320 322 314 333 350 5 357 346 355 12 359 354 357 8 19 17 31 40 50 60 82 118 144 139 137 138 144 150 152 159 150
206 209 223 233 231 235 238 227 228 258 284 284 302 321 328 328 320 322 317 310 329 343 15 13 9 357 9 358 355 357 13 33 25 30 47 52 49 67 80 109 146 135 134 140 153 154 163 161 161
203 202 224 237 240 241 245 251 221 258 274 280 302 317 322 311 316 330 312 317 341 12 28 18 15 17 27 17 12 22 29 41 38 41 59 65 61 71 72 96 124 130 129 131 126 146 159 164 166
218 207 217 228 231 228 223 216 253 242 260 278 297 316 317 298 314 340 315 333 357 36 37 32 29 32 42 42 35 44 40 50 47 50 44 67 69 74 68 101 116 126 128 132 133 137 146 155 161
Height
5898 5898 5897 5898 5898 5896 5892 5891 5890 5885 5883 5882 5882 5882 5879 5877 5880 5882 5878 5873 5870 5867 5866 5865 5860 5858 5856 5853 5851 5849 5847 5845 5843 5841 5839 5836 5834 5831 5830 5829 5828 5827 5828 5829 5831 5832 5833 5835 5838
5895 5895 5895 5895 5895 5892 5890 5888 5884 5883 5879 5875 5876 5877 5876 5874 5876 5876 5870 5868 5868 5864 5864 5860 5855 5852 5850 5847 5844 5842 5839 5837 5836 5833 5830 5828 5825 5823 5820 5818 5818 5819 5819 5819 5819 5821 5822 5824 5828
5892 5891 5892 5893 5892 5887 5883 5881 5881 5878 5880 5878 5876 5872 5869 5868 5871 5870 5863 5860 5860 5858 5857 5855 5851 5848 5843 5841 5839 5835 5832 5830 5828 5824 5821 5819 5816 5813 5811 5809 5807 5807 5809 5809 5810 5811 5812 5814 5818
5888 5889 5889 5888 5887 5884 5883 5882 5876 5877 5877 5875 5868 5866 5867 5867 5869 5865 5859 5856 5853 5852 5848 5848 5846 5843 5839 5836 5833 5830 5826 5822 5819 5815 5812 5810 5807 5804 5802 5800 5798 5798 5798 5797 5798 5800 5801 5803 5806
5885 5885 5885 5886 5886 5880 5880 5878 5872 5874 5874 5871 5868 5861 5861 5861 5862 5859 5854 5850 5846 5845 5842 5838 5836 5834 5831 5828 5826 5822 5818 5814 5811 5807 5804 5800 5798 5795 5793 5791 5789 5787 5785 5786 5787 5788 5790 5793 5795
5881 5880 5881 5881 5882 5879 5877 5874 5872 5871 5871 5869 5865 5861 5858 5855 5858 5854 5850 5845 5841 5841 5837 5834 5832 5828 5825 5821 5817 5813 5809 5806 5802 5799 5795 5791 5788 5785 5783 5780 5776 5774 5773 5773 5774 5776 5778 5781 5785
5877 5875 5878 5876 5875 5877 5876 5865 5866 5864 5863 5864 5863 5858 5853 5852 5851 5847 5844 5840 5836 5833 5831 5827 5823 5819 5817 5815 5812 5806 5801 5797 5792 5789 5785 5782 5778 5774 5771 5768 5765 5764 5763 5761 5761 5763 5766 5770 5774
5871 5869 5873 5872 5870 5873 5870 5866 5865 5860 5859 5857 5854 5852 5849 5848 5844 5841 5837 5833 5831 5829 5825 5824 5820 5817 5812 5809 5806 5801 5796 5790 5784 5781 5777 5773 5768 5763 5759 5756 5754 5753 5752 5750 5750 5752 5755 5759 5764
5866 5864 5868 5866 5864 5864 5862 5861 5862 5860 5857 5854 5848 5845 5845 5842 5839 5834 5832 5829 5829 5827 5824 5819 5813 5808 5804 5800 5796 5791 5786 5781 5776 5771 5768 5763 5758 5753 5750 5746 5743 5742 5740 5740 5739 5741 5745 5750 5755
5859 5855 5862 5860 5860 5857 5857 5858 5858 5857 5856 5850 5843 5836 5835 5837 5836 5832 5828 5825 5823 5818 5815 5811 5805 5801 5796 5792 5789 5785 5780 5774 5769 5764 5760 5754 5750 5745 5740 5736 5733 5731 5730 5729 5730 5733 5737 5743 5747
5853 5847 5853 5854 5853 5851 5851 5852 5852 5850 5848 5845 5840 5837 5834 5832 5831 5828 5824 5822 5818 5813 5809 5805 5800 5796 5792 5787 5781 5777 5771 5766 5761 5756 5752 5747 5741 5736 5731 5726 5723 5721 5721 5722 5722 5725 5730 5735 5740
5838 5841 5845 5846 5845 5843 5845 5845 5846 5844 5843 5839 5834 5832 5830 5829 5827 5825 5821 5816 5812 5807 5803 5800 5794 5791 5786 5781 5775 5770 5765 5760 5756 5750 5745 5740 5733 5727 5721 5717 5714 5714 5713 5714 5715 5717 5722 5729 5734
5831 5834 5835 5838 5838 5838 5839 5839 5839 5838 5837 5835 5829 5827 5826 5826 5824 5823 5819 5814 5809 5805 5801 5796 5791 5785 5780 5774 5768 5763 5758 5753 5749 5745 5738 5733 5728 5719 5713 5708 5707 5707 5706 5706 5707 5710 5715 5723 5730
5828 5824 5825 5828 5830 5832 5833 5833 5834 5832 5832 5829 5825 5824 5823 5820 5818 5816 5812 5808 5803 5800 5796 5790 5784 5780 5774 5769 5763 5757 5752 5748 5743 5739 5735 5729 5721 5713 5707 5705 5703 5701 5699 5699 5702 5705 5711 5719 5726
5819 5817 5818 5820 5824 5827 5829 5825 5827 5827 5827 5825 5820 5820 5817 5814 5811 5809 5806 5801 5798 5795 5790 5785 5780 5775 5771 5764 5758 5753 5748 5743 5738 5735 5729 5723 5716 5709 5704 5700 5698 5696 5694 5695 5699 5701 5707 5715 5723
5811 5812 5810 5817 5821 5824 5822 5818 5819 5821 5823 5820 5817 5813 5810 5807 5803 5804 5803 5800 5795 5790 5786 5780 5774 5770 5765 5759 5753 5748 5743 5739 5733 5730 5725 5718 5712 5706 5701 5697 5694 5692 5691 5693 5696 5700 5706 5714 5721
5805 5806 5808 5813 5815 5817 5814 5812 5815 5817 5816 5816 5812 5810 5807 5803 5797 5801 5796 5793 5788 5784 5780 5776 5771 5766 5760 5755 5750 5745 5740 5734 5730 5726 5721 5714 5708 5703 5699 5695 5691 5689 5689 5692 5695 5700 5707 5713 5721
5802 5801 5804 5808 5810 5810 5810 5807 5809 5812 5813 5810 5807 5804 5802 5797 5794 5793 5791 5788 5784 5781 5776 5771 5766 5762 5756 5752 5747 5741 5736 5731 5727 5722 5716 5712 5706 5700 5697 5693 5690 5688 5689 5691 5693 5699 5706 5713 5720
5795 5795 5797 5802 5803 5805 5806 5805 5808 5808 5806 5804 5804 5802 5799 5794 5788 5788 5787 5784 5780 5776 5772 5768 5763 5758 5753 5748 5744 5739 5734 5729 5723 5718 5714 5709 5703 5698 5696 5693 5690 5688 5688 5689 5691 5699 5706 5713 5721
5787 5789 5791 5795 5796 5800 5799 5801 5803 5803 5801 5804 5801 5798 5793 5791 5789 5787 5783 5780 5777 5773 5769 5765 5760 5755 5750 5745 5741 5736 5730 5726 5721 5716 5712 5707 5702 5698 5695 5692 5689 5688 5689 5690 5693 5700 5707 5714 5721
5781 5783 5788 5791 5793 5795 5798 5798 5801 5802 5800 5798 5795 5792 5787 5787 5788 5784 5779 5775 5772 5770 5765 5761 5756 5752 5747 5743 5739 5734 5729 5724 5719 5714 5711 5706 5700 5697 5694 5693 5690 5690 5690 5692 5696 5702 5709 5715 5721
5773 5781 5783 5785 5787 5789 5792 5790 5792 5794 5793 5793 5790 5785 5784 5784 5784 5779 5775 5772 5769 5765 5762 5758 5753 5749 5745 5742 5738 5732 5727 5722 5717 5713 5710 5705 5701 5696 5694 5693 5692 5691 5692 5696 5699 5704 5711 5717 5724
5772 5775 5778 5780 5782 5784 5786 5786 5790 5788 5789 5787 5784 5782 5780 5779 5780 5775 5772 5769 5766 5762 5758 5755 5750 5746 5743 5740 5736 5732 5726 5721 5717 5713 5709 5704 5700 5696 5694 5694 5694 5694 5695 5698 5702 5708 5714 5720 5727
5766 5769 5771 5775 5778 5777 5781 5784 5785 5784 5783 5781 5782 5781 5777 5775 5774 5770 5768 5766 5762 5760 5756 5752 5748 5744 5741 5738 5734 5731 5725 5720 5717 5712 5708 5704 5700 5697 5694 5695 5696 5697 5698 5701 5705 5712 5717 5721 5727
5754 5763 5765 5768 5770 5772 5780 5780 5782 5782 5780 5780 5779 5779 5776 5772 5769 5767 5766 5763 5760 5757 5753 5749 5745 5742 5740 5737 5734 5731 5726 5722 5718 5713 5706 5704 5701 5699 5697 5697 5698 5700 5702 5706 5709 5714 5718 5724 5730
5747 5755 5759 5761 5764 5772 5775 5773 5775 5775 5777 5777 5776 5776 5774 5770 5767 5764 5763 5760 5757 5754 5751 5747 5743 5740 5738 5736 5734 5730 5727 5722 5718 5712 5708 5705 5703 5701 5699 5700 5701 5703 5707 5710 5714 5718 5720 5725 5730
5744 5746 5757 5760 5763 5766 5768 5772 5773 5772 5774 5773 5770 5773 5771 5767 5764 5762 5760 5757 5755 5752 5749 5746 5743 5739 5737 5736 5733 5730 5727 5723 5719 5713 5709 5707 5705 5704 5702 5702 5704 5706 5710 5713 5717 5720 5726 5729 5733
5735 5747 5751 5752 5757 5759 5763 5766 5767 5769 5769 5767 5768 5769 5767 5764 5762 5760 5757 5756 5753 5751 5748 5745 5742 5739 5737 5735 5733 5730 5728 5724 5720 5715 5711 5709 5708 5706 5705 5704 5707 5710 5713 5716 5720 5723 5727 5731 5736
5730 5736 5744 5751 5754 5756 5761 5764 5765 5764 5765 5766 5766 5767 5764 5762 5761 5757 5755 5754 5752 5750 5747 5745 5741 5740 5737 5735 5733 5731 5730 5727 5722 5717 5715 5713 5712 5710 5709 5708 5710 5713 5716 5718 5720 5724 5729 5734 5738
5726 5732 5738 5741 5747 5752 5757 5760 5759 5762 5763 5763 5765 5766 5762 5759 5759 5756 5755 5753 5752 5749 5747 5744 5742 5740 5738 5736 5734 5733 5732 5729 5725 5721 5719 5718 5716 5715 5714 5714 5714 5717 5720 5723 5725 5727 5732 5737 5742